Cloud_Cover
0 0 0 0 0 0 0 0 0 0 0 0 0 0 0 0 0 0 0 0 0 0 3 7 5 100 57 1 98 93 3 54 24 58 60 100 100 100 35 100 68 5 67 57
0 0 0 0 0 0 0 0 0 0 0 0 0 0 0 0 0 0 0 0 0 0 0 5 1 2 100 100 91 100 0 0 26 0 57 88 100 77 98 49 43 39 30 82
0 0 0 0 0 0 0 0 0 0 0 0 0 0 0 0 0 0 0 0 0 0 0 4 5 0 0 100 67 20 0 2 1 0 11 75 100 85 97 48 14 7 74 85
0 0 0 0 0 0 0 0 0 0 0 0 0 0 0 0 0 1 5 0 0 0 0 1 5 0 3 66 63 96 0 1 0 0 0 0 100 93 99 74 87 44 47 7
0 0 0 0 0 0 0 0 0 0 0 0 0 0 0 0 0 0 2 0 0 0 0 0 0 14 5 92 84 15 76 12 0 0 4 5 21 99 85 6 13 98 27 85
0 0 0 0 0 0 0 0 0 0 0 0 0 0 0 0 0 0 0 0 0 0 0 0 0 0 21 7 46 88 71 48 35 0 0 1 18 46 76 72 18 21 72 100
0 0 0 0 0 0 0 0 0 0 0 0 0 0 0 0 0 0 1 1 1 0 0 0 0 5 11 67 100 76 100 100 100 18 0 0 0 46 5 5 70 25 32 47
0 0 0 0 0 0 0 0 0 0 0 0 0 0 0 0 0 3 5 5 5 0 0 0 2 3 100 100 35 79 100 100 100 100 14 72 0 55 51 16 20 56 18 10
0 0 0 0 0 0 0 0 0 0 0 0 0 0 0 0 0 0 13 22 5 7 5 19 70 71 86 100 100 10 100 100 100 100 93 66 31 6 100 86 14 39 58 42
0 0 0 0 0 0 0 0 0 0 0 0 0 0 0 0 0 0 0 0 1 3 5 100 85 1 4 98 98 5 11 100 100 94 15 96 2 0 15 97 38 81 85 47
0 0 2 2 0 0 2 4 4 1 0 0 0 0 0 0 0 0 0 0 0 5 19 94 19 0 0 84 33 4 10 5 34 93 100 100 100 81 17 99 20 98 100 100
0 0 0 0 0 0 0 0 0 0 0 0 0 0 0 0 0 0 0 0 3 4 7 16 5 4 0 0 100 18 5 9 52 20 45 99 98 100 100 99 20 29 100 100
0 0 0 0 0 4 5 5 0 0 0 0 0 0 0 0 0 0 0 0 2 0 0 5 5 5 0 0 42 100 32 98 100 95 100 60 38 64 25 100 100 10 59 100
5 5 5 5 5 5 3 3 0 0 0 0 0 0 0 0 0 0 0 0 0 0 0 3 5 5 5 4 0 5 15 12 94 100 100 100 100 67 77 53 53 5 10 98
14 5 5 4 2 1 0 0 0 0 0 0 0 0 0 0 0 0 0 4 2 5 2 3 0 1 2 2 0 0 3 4 51 100 100 100 100 100 98 36 100 58 6 99
4 5 5 0 0 0 0 2 0 0 0 0 0 0 0 0 0 0 0 0 0 0 1 4 5 5 5 0 0 0 0 3 4 100 100 100 100 96 100 100 10 99 1 58
5 3 0 0 0 0 1 0 0 0 0 0 0 0 0 0 0 0 0 0 0 0 5 65 11 4 0 0 0 0 0 0 2 5 99 100 81 100 100 100 100 62 5 18
0 0 0 1 5 3 0 0 0 0 0 0 0 0 0 0 0 0 4 3 2 2 1 6 18 4 4 0 0 0 3 0 0 0 5 6 59 100 100 100 100 100 90 24
0 0 0 0 0 0 0 0 0 0 0 0 0 0 0 0 0 0 3 4 4 4 4 5 5 26 40 5 5 0 1 5 5 8 4 5 5 29 45 100 94 100 100 82
2 5 0 0 0 0 0 0 0 0 0 0 5 5 5 5 0 0 1 3 5 5 5 5 5 49 64 51 5 5 0 0 0 0 30 5 4 52 63 62 60 94 100 100
4 0 0 0 0 0 1 2 5 12 6 5 5 5 5 4 5 4 5 4 5 5 5 19 5 5 5 5 4 4 4 0 0 0 0 0 11 5 46 16 32 95 100 100
0 0 0 0 0 0 0 0 1 1 0 0 0 0 0 0 0 0 0 5 3 2 0 2 1 0 2 2 1 0 0 0 0 0 0 0 0 2 2 3 30 67 100 100
0 0 0 0 0 0 0 0 0 0 0 0 0 0 0 0 0 3 1 0 1 0 0 0 1 5 5 1 0 0 0 0 0 0 0 0 0 0 5 5 4 44 100 100
0 0 0 0 0 0 0 0 0 0 0 0 0 3 5 4 0 0 0 1 0 0 0 0 0 0 2 5 5 0 0 0 0 0 0 0 0 9 9 26 38 98 100 100
0 0 0 0 2 5 0 0 0 0 0 0 0 0 4 4 0 0 4 5 5 4 3 0 0 0 0 0 0 0 0 0 0 0 0 0 0 1 4 18 99 100 73 100
0 3 5 5 5 1 0 0 5 1 0 0 0 0 5 5 6 79 95 85 7 5 4 4 5 4 5 2 0 0 0 0 0 0 0 0 0 14 26 27 95 100 100 100